Lewiston, WA

5:41 PM PST on November 20, 2017 (GMT -0800)
Lewiston-Nez Perce County

Weather History for KLWS - March, 2012

Change the Weather History Date:

Monday, March 5, 2012

  Actual Average Record
Temperature  
Mean Temperature 46 °F 42 °F  
Max Temperature 54 °F 52 °F 68 °F (1987)
Min Temperature 37 °F 33 °F 2 °F (1955)
Degree Days  
Heating Degree Days 19 23  
Month to date heating degree days 111 116  
Since 1 July heating degree days 3783 3971  
Cooling Degree Days 0 0  
Month to date cooling degree days 0 0  
Year to date cooling degree days 0 0  
Moisture  
Dew Point 34 °F    
Average Humidity 60    
Maximum Humidity 76    
Minimum Humidity 43    
Precipitation  
Precipitation T in 0.03 in 0.42 in (1930)
Month to date precipitation 0.02 0.17  
Year to date precipitation 2.62 2.03  
Snow  
Snow 0.00 in 0.10 in 2.00 in (1980)
Month to date snowfall T 0.3  
Since 1 July snowfall 13.5 10.1  
Snow Depth 0.00 in    
Sea Level Pressure  
Sea Level Pressure 29.75 in    
Wind  
Wind Speed 8 mph (WNW)    
Max Wind Speed 28 mph    
Max Gust Speed 38 mph    
Visibility 10 miles    
Events      
T = Trace of Precipitation, MM = Missing Value Source: NWS Daily Summary

Daily Weather History Graph

Daily Weather History Graph

Search for Another Location

Airport or City:

Trip Planner

Search our weather history database for the weather conditions in past years. The results will help you decide how hot, cold, wet, or windy it might be!

Date:

Astronomy

Mar. 05, 2012 Rise Set
Actual Time 6:18 AM PST 5:40 PM PST
Civil Twilight 5:48 AM PST 6:10 PM PST
Nautical Twilight 5:14 AM PST 6:45 PM PST
Astronomical Twilight 4:38 AM PST 7:20 PM PST
Moon 2:57 PM PST (3/5) 4:29 AM PST (3/5)
Length of Visible Light 12h 22m
Length of Day
11h 21m
Waxing Gibbous, 91% of the Moon is Illuminated
Mar 5
Waxing Gibbous
Mar 8
Full
Mar 14
Last Quarter
Mar 22
New
Mar 30
First Quarter

Hourly Weather History & Observations

Time (PST) Temp. Windchill Dew Point Humidity Pressure Visibility Wind Dir Wind Speed Gust Speed Precip Events Conditions
12:56 AM 45.0 °F - 36.0 °F 71% 29.95 in 10.0 mi Calm Calm - N/A   Clear
1:56 AM 46.0 °F 44.8 °F 35.1 °F 66% 29.92 in 10.0 mi NNW 3.5 mph - N/A   Clear
2:56 AM 46.0 °F 43.9 °F 35.1 °F 66% 29.89 in 10.0 mi North 4.6 mph - N/A   Clear
3:56 AM 46.0 °F - 35.1 °F 66% 29.87 in 10.0 mi Calm Calm - N/A   Clear
4:56 AM 44.1 °F - 34.0 °F 68% 29.85 in 10.0 mi Calm Calm - N/A   Clear
5:56 AM 46.0 °F - 34.0 °F 63% 29.82 in 10.0 mi Calm Calm - N/A   Partly Cloudy
6:56 AM 46.9 °F - 34.0 °F 61% 29.80 in 10.0 mi Calm Calm - N/A   Partly Cloudy
7:56 AM 46.9 °F - 33.1 °F 59% 29.79 in 10.0 mi Calm Calm - N/A   Clear
8:56 AM 46.9 °F - 36.0 °F 66% 29.77 in 10.0 mi Calm Calm - N/A   Clear
9:56 AM 45.0 °F 42.6 °F 37.0 °F 74% 29.77 in 10.0 mi WNW 4.6 mph - N/A   Clear
10:56 AM 48.9 °F - 37.0 °F 64% 29.73 in 10.0 mi NNW 6.9 mph - N/A   Clear
11:56 AM 48.9 °F - 37.9 °F 66% 29.70 in 10.0 mi NNW 5.8 mph - N/A   Clear
12:56 PM 51.1 °F - 37.9 °F 61% 29.67 in 10.0 mi SSE 4.6 mph - N/A   Overcast
1:56 PM 52.0 °F - 37.0 °F 57% 29.63 in 10.0 mi NE 6.9 mph - N/A   Overcast
2:56 PM 52.0 °F - 37.9 °F 59% 29.64 in 10.0 mi NW 5.8 mph - N/A   Overcast
3:56 PM 48.9 °F - 36.0 °F 61% 29.62 in 10.0 mi WNW 24.2 mph 34.5 mph N/A   Overcast
4:56 PM 46.9 °F - 36.0 °F 66% 29.65 in 10.0 mi WNW 18.4 mph 26.5 mph N/A   Overcast
5:56 PM 46.9 °F - 36.0 °F 66% 29.65 in 10.0 mi WNW 9.2 mph - N/A   Overcast
6:56 PM 46.9 °F - 36.0 °F 66% 29.65 in 10.0 mi WNW 6.9 mph - N/A   Overcast
7:56 PM 44.1 °F 36.8 °F 33.1 °F 65% 29.66 in 10.0 mi West 16.1 mph 26.5 mph 0.00 in   Scattered Clouds
8:56 PM 42.1 °F 36.1 °F 30.0 °F 62% 29.70 in 10.0 mi West 10.4 mph 21.9 mph N/A   Scattered Clouds
9:56 PM 42.1 °F 32.8 °F 21.9 °F 45% 29.75 in 10.0 mi WSW 21.9 mph 29.9 mph N/A   Overcast
10:56 PM 39.9 °F 30.5 °F 21.0 °F 47% 29.76 in 10.0 mi WNW 19.6 mph 28.8 mph N/A   Mostly Cloudy
11:56 PM 37.0 °F 28.9 °F 19.9 °F 50% 29.78 in 10.0 mi WSW 12.7 mph 20.7 mph N/A   Clear